STARLINK-1337 (45582 NORAD) Tracking and Keplerian Element Data

This shows tracking and keplerian element data for the satellite.

Feedback or suggestion? Click here.




ElementValue
Catalog45582
NameSTARLINK-1337
Epoch Orbit568
Epoch Day145.50001157
Epoch Year2020
RAAN242.9807
Inclination52.9978
Eccentricity0.0001408
Argument of Perigee91.1468
Mean Anonmoly314.3142
Mean Motion15.6280456
Decay Rate-0.0002142
L11 45582U 20025BD 20145.50001157 -.00021420 00000-0 -22823-3 0 9995
L22 45582 52.9978 242.9807 0001408 91.1468 314.3142 15.62804560 5684

Live tracking and technical data element details for STARLINK-1337 (NORAD 45582). STARLINK-1337 can be tracked NOW for your location showing map with azimuth and elevation plus other details from your city location.

Track the satellite on the map from your city or location and see movement details for azimuth, elevation, latitude, longitude, range, height, and movement on the map or in text.







IsCatalogInMostPopularTable: catalog: 45582, numindb: 11
Update: records affected: 1



GetName: 45582 STARLINK-1337

Hit Count: updated at: Tue, 26 May 2020 03:59:15 GMT